• In Belgien
  • Länderverzeichnis
  • Für 7 Tage
  • Wassertemperatur
  • Satellitenkarten
  • Wetterkarte
  • Widgets
  • user-avatar
    Anmelden

    Stündliche Wetter Abowian

    Heute, 20 Oktober, Samstag

    Zeit Temperatur Niederschläge Wind Luftdruck Luftfeuchtigkeit
    00:00 +13°C° 0 mm 1 m/S 673 mmHg 47%
    01:00 +13°C° 0.1 mm 1 m/S 673 mmHg 46%
    02:00 +13°C° 0.1 mm 1 m/S 673 mmHg 45%
    03:00 +12°C° 0.1 mm 1 m/S 673 mmHg 44%
    04:00 +12°C° 0.1 mm 1 m/S 673 mmHg 45%
    05:00 +12°C° 0.1 mm 1 m/S 673 mmHg 46%
    06:00 +12°C° 0.1 mm 1 m/S 673 mmHg 46%
    07:00 +14°C° 0 mm 1 m/S 673 mmHg 46%
    08:00 +16°C° 0 mm 1 m/S 673 mmHg 45%
    09:00 +18°C° 0 mm 2 m/S 674 mmHg 45%
    10:00 +19°C° 0 mm 2 m/S 674 mmHg 43%
    11:00 +20°C° 0 mm 2 m/S 673 mmHg 41%
    12:00 +21°C° 0 mm 2 m/S 673 mmHg 39%
    13:00 +21°C° 0.1 mm 2 m/S 673 mmHg 38%
    14:00 +21°C° 0.1 mm 2 m/S 673 mmHg 37%
    15:00 +23°C° 0.1 mm 2 m/S 672 mmHg 37%
    16:00 +20°C° 0.2 mm 2 m/S 672 mmHg 41%
    17:00 +18°C° 0.2 mm 2 m/S 672 mmHg 46%
    18:00 +16°C° 0.2 mm 1 m/S 671 mmHg 50%
    19:00 +16°C° 0.2 mm 1 m/S 672 mmHg 51%
    20:00 +15°C° 0.2 mm 1 m/S 672 mmHg 52%
    21:00 +15°C° 0.2 mm 1 m/S 672 mmHg 53%
    22:00 +15°C° 0.1 mm 1 m/S 671 mmHg 54%
    23:00 +14°C° 0.1 mm 1 m/S 671 mmHg 55%

    Morgen, 21 Oktober, Sonntag

    Zeit Temperatur Niederschläge Wind Luftdruck Luftfeuchtigkeit
    00:00 +14°C° 0.1 mm 1 m/S 671 mmHg 56%
    01:00 +14°C° 0.1 mm 1 m/S 671 mmHg 57%
    02:00 +13°C° 0.1 mm 1 m/S 671 mmHg 58%
    03:00 +13°C° 0.1 mm 1 m/S 671 mmHg 59%
    04:00 +13°C° 0 mm 1 m/S 671 mmHg 60%
    05:00 +13°C° 0 mm 1 m/S 671 mmHg 61%
    06:00 +13°C° 0 mm 1 m/S 671 mmHg 61%
    07:00 +14°C° 0.1 mm 1 m/S 671 mmHg 57%
    08:00 +16°C° 0.1 mm 1 m/S 672 mmHg 52%
    09:00 +18°C° 0.1 mm 2 m/S 672 mmHg 47%
    10:00 +19°C° 0.1 mm 2 m/S 672 mmHg 45%
    11:00 +20°C° 0.1 mm 2 m/S 672 mmHg 42%
    12:00 +21°C° 0.1 mm 3 m/S 672 mmHg 40%
    13:00 +21°C° 0.1 mm 3 m/S 671 mmHg 40%
    14:00 +21°C° 0.1 mm 3 m/S 671 mmHg 39%
    15:00 +21°C° 0.1 mm 3 m/S 671 mmHg 39%
    16:00 +19°C° 0.3 mm 2 m/S 671 mmHg 43%
    17:00 +18°C° 0.3 mm 2 m/S 671 mmHg 47%
    18:00 +16°C° 0.3 mm 2 m/S 670 mmHg 52%
    19:00 +16°C° 0.3 mm 2 m/S 671 mmHg 53%
    20:00 +16°C° 0.3 mm 1 m/S 671 mmHg 54%
    21:00 +15°C° 0.3 mm 1 m/S 671 mmHg 55%
    22:00 +15°C° 0.1 mm 1 m/S 671 mmHg 56%
    23:00 +15°C° 0.1 mm 1 m/S 671 mmHg 57%

    übermorgen, 22 Oktober, Montag

    Zeit Temperatur Niederschläge Wind Luftdruck Luftfeuchtigkeit
    00:00 +14°C° 0.1 mm 1 m/S 671 mmHg 58%
    01:00 +14°C° 0 mm 1 m/S 671 mmHg 60%
    02:00 +14°C° 0 mm 1 m/S 671 mmHg 62%
    03:00 +13°C° 0 mm 1 m/S 671 mmHg 63%
    04:00 +13°C° 0.1 mm 1 m/S 671 mmHg 64%
    05:00 +13°C° 0.1 mm 1 m/S 671 mmHg 66%
    06:00 +13°C° 0.1 mm 1 m/S 671 mmHg 67%
    07:00 +14°C° 0.2 mm 1 m/S 672 mmHg 63%
    08:00 +15°C° 0.2 mm 2 m/S 672 mmHg 60%
    09:00 +17°C° 0.2 mm 2 m/S 673 mmHg 56%
    10:00 +18°C° 0.2 mm 2 m/S 673 mmHg 54%
    11:00 +19°C° 0.2 mm 2 m/S 672 mmHg 51%
    12:00 +19°C° 0.2 mm 2 m/S 672 mmHg 49%
    13:00 +20°C° 0.1 mm 2 m/S 672 mmHg 48%
    14:00 +20°C° 0.1 mm 2 m/S 672 mmHg 47%
    15:00 +20°C° 0.1 mm 2 m/S 672 mmHg 46%
    16:00 +19°C° 0.2 mm 2 m/S 672 mmHg 50%
    17:00 +17°C° 0.2 mm 2 m/S 671 mmHg 55%
    18:00 +16°C° 0.2 mm 1 m/S 671 mmHg 60%
    19:00 +15°C° 0.1 mm 1 m/S 672 mmHg 61%
    20:00 +15°C° 0.1 mm 1 m/S 672 mmHg 62%
    21:00 +15°C° 0.1 mm 1 m/S 672 mmHg 63%
    22:00 +14°C° 0.1 mm 1 m/S 672 mmHg 64%
    23:00 +14°C° 0.1 mm 1 m/S 672 mmHg 65%

    23 Oktober, Dienstag

    Zeit Temperatur Niederschläge Wind Luftdruck Luftfeuchtigkeit
    00:00 +14°C° 0.1 mm 1 m/S 672 mmHg 65%
    01:00 +13°C° 0 mm 1 m/S 672 mmHg 65%
    02:00 +13°C° 0 mm 1 m/S 672 mmHg 65%
    03:00 +13°C° 0 mm 1 m/S 672 mmHg 66%
    04:00 +13°C° 0 mm 1 m/S 672 mmHg 66%
    05:00 +12°C° 0 mm 1 m/S 672 mmHg 67%
    06:00 +12°C° 0 mm 1 m/S 672 mmHg 67%
    07:00 +14°C° 0 mm 1 m/S 673 mmHg 62%
    08:00 +16°C° 0 mm 2 m/S 673 mmHg 56%
    09:00 +17°C° 0 mm 2 m/S 674 mmHg 50%
    10:00 +18°C° 0 mm 2 m/S 674 mmHg 47%
    11:00 +19°C° 0 mm 3 m/S 673 mmHg 44%
    12:00 +20°C° 0 mm 3 m/S 673 mmHg 41%
    13:00 +21°C° 0 mm 3 m/S 673 mmHg 41%
    14:00 +21°C° 0 mm 3 m/S 672 mmHg 40%
    15:00 +21°C° 0 mm 3 m/S 672 mmHg 40%
    16:00 +19°C° 0.1 mm 3 m/S 672 mmHg 44%
    17:00 +18°C° 0.1 mm 2 m/S 672 mmHg 48%
    18:00 +16°C° 0.1 mm 2 m/S 672 mmHg 53%
    19:00 +16°C° 0.2 mm 2 m/S 672 mmHg 54%
    20:00 +16°C° 0.2 mm 2 m/S 672 mmHg 54%
    21:00 +16°C° 0.2 mm 1 m/S 672 mmHg 55%
    22:00 +15°C° 0.2 mm 1 m/S 672 mmHg 57%
    23:00 +15°C° 0.2 mm 1 m/S 672 mmHg 59%

    24 Oktober, Mittwoch

    Zeit Temperatur Niederschläge Wind Luftdruck Luftfeuchtigkeit
    00:00 +14°C° 0.2 mm 2 m/S 672 mmHg 61%
    01:00 +14°C° 0 mm 2 m/S 671 mmHg 63%
    02:00 +13°C° 0 mm 2 m/S 671 mmHg 66%
    03:00 +13°C° 0 mm 2 m/S 671 mmHg 68%
    04:00 +13°C° 0.1 mm 2 m/S 671 mmHg 69%
    05:00 +13°C° 0.1 mm 1 m/S 671 mmHg 70%
    06:00 +13°C° 0.1 mm 1 m/S 671 mmHg 71%
    07:00 +14°C° 0 mm 2 m/S 671 mmHg 67%
    08:00 +15°C° 0 mm 2 m/S 671 mmHg 63%
    09:00 +17°C° 0 mm 3 m/S 671 mmHg 59%
    10:00 +18°C° 0 mm 3 m/S 671 mmHg 56%
    11:00 +19°C° 0 mm 3 m/S 671 mmHg 52%
    12:00 +20°C° 0 mm 4 m/S 670 mmHg 49%
    13:00 +20°C° 0.2 mm 4 m/S 670 mmHg 49%
    14:00 +20°C° 0.2 mm 4 m/S 669 mmHg 50%
    15:00 +20°C° 0.2 mm 4 m/S 669 mmHg 50%
    16:00 +19°C° 0.2 mm 4 m/S 669 mmHg 54%
    17:00 +18°C° 0.2 mm 3 m/S 669 mmHg 57%
    18:00 +17°C° 0.2 mm 3 m/S 669 mmHg 61%
    19:00 +16°C° 0.3 mm 3 m/S 668 mmHg 62%
    20:00 +16°C° 0.3 mm 3 m/S 668 mmHg 64%
    21:00 +14°C° 0.3 mm 3 m/S 668 mmHg 66%
    22:00 +14°C° 0.1 mm 3 m/S 668 mmHg 68%
    23:00 +13°C° 0.1 mm 3 m/S 667 mmHg 70%

    25 Oktober, Donnerstag

    Zeit Temperatur Niederschläge Wind Luftdruck Luftfeuchtigkeit
    00:00 +13°C° 0.1 mm 3 m/S 667 mmHg 73%
    01:00 +13°C° 0 mm 3 m/S 667 mmHg 74%
    02:00 +12°C° 0 mm 3 m/S 666 mmHg 75%
    03:00 +12°C° 0 mm 3 m/S 666 mmHg 76%
    04:00 +12°C° 0.1 mm 3 m/S 666 mmHg 76%
    05:00 +12°C° 0.1 mm 3 m/S 666 mmHg 77%
    06:00 +12°C° 0.1 mm 3 m/S 666 mmHg 77%
    07:00 +13°C° 0.2 mm 4 m/S 666 mmHg 73%
    08:00 +14°C° 0.2 mm 4 m/S 666 mmHg 68%
    09:00 +15°C° 0.2 mm 5 m/S 666 mmHg 64%
    10:00 +16°C° 0.2 mm 5 m/S 666 mmHg 60%
    11:00 +17°C° 0.2 mm 5 m/S 666 mmHg 55%
    12:00 +19°C° 0.2 mm 6 m/S 666 mmHg 51%
    13:00 +20°C° 0.2 mm 6 m/S 665 mmHg 49%
    14:00 +20°C° 0.2 mm 6 m/S 665 mmHg 46%
    15:00 +20°C° 0.2 mm 6 m/S 664 mmHg 43%
    16:00 +19°C° 0.1 mm 5 m/S 664 mmHg 47%
    17:00 +17°C° 0.1 mm 5 m/S 664 mmHg 51%
    18:00 +15°C° 0.1 mm 4 m/S 664 mmHg 55%
    19:00 +15°C° 0.2 mm 4 m/S 664 mmHg 56%
    20:00 +15°C° 0.2 mm 4 m/S 664 mmHg 57%
    21:00 +15°C° 0.2 mm 4 m/S 664 mmHg 58%
    22:00 +14°C° 0.2 mm 4 m/S 664 mmHg 60%
    23:00 +14°C° 0.2 mm 4 m/S 664 mmHg 63%
    Mehr zeigen